Weather History for Adana, Turkey

Change the Weather History Date:

Saturday, March 9, 2013

  Actual Average Record
Temperature  
Mean Temperature 60 °F -  
Max Temperature 69 °F 67 °F 80 °F (2008)
Min Temperature 51 °F 47 °F 33 °F (2004)
Degree Days  
Heating Degree Days 5    
Growing Degree Days 10 (Base 50)    
Moisture  
Dew Point 32 °F    
Average Humidity 38    
Maximum Humidity 71    
Minimum Humidity 20    
Precipitation  
Precipitation 0.00 in 0.09 in - ()
Sea Level Pressure  
Sea Level Pressure 29.90 in    
Wind  
Wind Speed 9 mph ()    
Max Wind Speed 16 mph    
Max Gust Speed -    
Visibility 5.3 miles    
Events      
Averages and records for this station are not official NWS values.
T = Trace of Precipitation, MM = Missing Value Source: Averaged Metar Reports

Daily Weather History Graph

Daily Weather History Graph

Search for Another Location

Airport:

Trip Planner

Search our weather history database for the weather conditions in past years. The results will help you decide how hot, cold, wet, or windy it might be!

Date:

Astronomy

Mar. 09, 2013 Rise Set
Actual Time 5:58 AM EET 5:40 PM EET
Civil Twilight 5:32 AM EET 6:06 PM EET
Nautical Twilight 5:02 AM EET 6:36 PM EET
Astronomical Twilight 4:32 AM EET 7:06 PM EET
Moon 4:06 AM EET (3/9) 3:21 PM EET (3/9)
Length of Visible Light 12h 33m
Length of Day
11h 41m
Waning Crescent, 7% of the Moon is Illuminated
Mar 9
Waning Crescent
Mar 11
New
Mar 19
First Quarter
Mar 27
Full
Apr 3
Last Quarter

Hourly Weather History & Observations

Time (EET) Temp. Dew Point Humidity Pressure Visibility Wind Dir Wind Speed Gust Speed Precip Events Conditions
12:20 AM 57.2 °F 28.4 °F 33% 29.95 in 6.2 mi North 11.5 mph - N/A   Mostly Cloudy
12:50 AM 57.2 °F 28.4 °F 33% 29.95 in 6.2 mi North 12.7 mph - N/A   Mostly Cloudy
1:20 AM 55.4 °F 28.4 °F 36% 29.92 in 6.2 mi North 12.7 mph - N/A   Scattered Clouds
1:50 AM 55.4 °F 30.2 °F 38% 29.92 in 6.2 mi NNE 13.8 mph - N/A   Mostly Cloudy
2:20 AM 55.4 °F 30.2 °F 38% 29.92 in 6.2 mi NNE 13.8 mph - N/A   Mostly Cloudy
2:50 AM 55.4 °F 28.4 °F 36% 29.89 in 6.2 mi NNE 13.8 mph - N/A   Mostly Cloudy
3:20 AM 53.6 °F 30.2 °F 41% 29.89 in 6.2 mi NNE 12.7 mph - N/A   Mostly Cloudy
3:50 AM 53.6 °F 28.4 °F 38% 29.89 in 6.2 mi NNE 12.7 mph - N/A   Scattered Clouds
4:20 AM 53.6 °F 28.4 °F 38% 29.89 in 6.2 mi NNE 11.5 mph - N/A   Scattered Clouds
4:50 AM 53.6 °F 30.2 °F 41% 29.89 in 6.2 mi North 9.2 mph - N/A   Scattered Clouds
5:20 AM 53.6 °F 30.2 °F 41% 29.89 in 6.2 mi North 9.2 mph - N/A   Scattered Clouds
5:50 AM 53.6 °F 30.2 °F 41% 29.89 in 6.2 mi NNE 10.4 mph - N/A   Partly Cloudy
6:20 AM 51.8 °F 32.0 °F 47% 29.92 in 6.2 mi NNE 8.1 mph - N/A   Partly Cloudy
6:50 AM 53.6 °F 32.0 °F 44% 29.92 in 6.2 mi NNE 9.2 mph - N/A   Partly Cloudy
7:20 AM 55.4 °F 32.0 °F 41% 29.92 in 6.2 mi NNE 9.2 mph - N/A   Partly Cloudy
7:50 AM 57.2 °F 30.2 °F 36% 29.92 in 6.2 mi NNE 10.4 mph - N/A   Partly Cloudy
8:20 AM 59.0 °F 28.4 °F 31% 29.92 in 6.2 mi NNE 11.5 mph - N/A   Partly Cloudy
8:50 AM 60.8 °F 30.2 °F 31% 29.92 in 6.2 mi NNE 11.5 mph - N/A   Partly Cloudy
9:20 AM 62.6 °F 26.6 °F 26% 29.92 in 6.2 mi NE 16.1 mph - N/A   Partly Cloudy
9:50 AM 62.6 °F 28.4 °F 27% 29.92 in 6.2 mi ENE 15.0 mph - N/A   Partly Cloudy
10:20 AM 62.6 °F 28.4 °F 27% 29.92 in 6.2 mi NE 13.8 mph - N/A   Partly Cloudy
10:50 AM 64.4 °F 28.4 °F 26% 29.92 in 6.2 mi NE 12.7 mph - N/A   Partly Cloudy
11:20 AM 66.2 °F 28.4 °F 24% 29.92 in 6.2 mi ENE 9.2 mph - N/A   Partly Cloudy
11:50 AM 66.2 °F 26.6 °F 23% 29.89 in 6.2 mi East 6.9 mph - N/A   Partly Cloudy
12:20 PM 66.2 °F 28.4 °F 24% 29.89 in 6.2 mi NNE 8.1 mph - N/A   Partly Cloudy
12:50 PM 68.0 °F 28.4 °F 23% 29.89 in 6.2 mi NE 6.9 mph - N/A   Partly Cloudy
1:20 PM 68.0 °F 24.8 °F 20% 29.86 in 6.2 mi ENE 8.1 mph - N/A   Partly Cloudy
1:50 PM 68.0 °F 24.8 °F 20% 29.86 in 6.2 mi NE 6.9 mph - N/A   Partly Cloudy
2:20 PM 68.0 °F 24.8 °F 20% 29.86 in 6.2 mi NE 6.9 mph - N/A   Partly Cloudy
2:50 PM 68.0 °F 26.6 °F 21% 29.86 in 6.2 mi East 4.6 mph - N/A   Partly Cloudy
3:20 PM 69.8 °F 26.6 °F 20% 29.86 in 6.2 mi ESE 3.5 mph - N/A   Partly Cloudy
3:50 PM 68.0 °F 26.6 °F 21% 29.86 in 6.2 mi South 5.8 mph - N/A   Partly Cloudy
4:20 PM 68.0 °F 30.2 °F 24% 29.86 in 6.2 mi SSW 5.8 mph - N/A   Partly Cloudy
4:50 PM 66.2 °F 30.2 °F 26% 29.86 in 6.2 mi SSW 6.9 mph - N/A   Partly Cloudy
5:20 PM 62.6 °F 33.8 °F 34% 29.86 in 3.1 mi WSW 8.1 mph - N/A   Haze
5:50 PM 59.0 °F 35.6 °F 42% 29.89 in 3.1 mi WSW 9.2 mph - N/A   Haze
6:20 PM 55.4 °F 37.4 °F 51% 29.89 in 3.1 mi SW 5.8 mph - N/A   Haze
6:50 PM 55.4 °F 37.4 °F 51% 29.89 in 3.1 mi SSW 4.6 mph - N/A   Haze
7:20 PM 55.4 °F 39.2 °F 54% 29.89 in 3.1 mi Variable 2.3 mph - N/A   Haze
7:50 PM 55.4 °F 39.2 °F 54% 29.92 in 3.1 mi SW 3.5 mph - N/A   Haze
8:20 PM 53.6 °F 39.2 °F 58% 29.92 in 3.1 mi SE 2.3 mph - N/A   Haze
8:50 PM 53.6 °F 41.0 °F 62% 29.92 in 3.1 mi Variable 2.3 mph - N/A   Haze
9:20 PM 53.6 °F 41.0 °F 62% 29.92 in 3.1 mi Variable 1.2 mph - N/A   Haze
9:50 PM 53.6 °F 41.0 °F 62% 29.92 in 3.1 mi ESE 4.6 mph - N/A   Haze
10:20 PM 53.6 °F 41.0 °F 62% 29.92 in 3.1 mi East 3.5 mph - N/A   Haze
10:50 PM 53.6 °F 41.0 °F 62% 29.92 in 3.1 mi ENE 3.5 mph - N/A   Haze
11:20 PM 53.6 °F 41.0 °F 62% 29.92 in 3.1 mi Variable 2.3 mph - N/A   Haze
11:50 PM 51.8 °F 42.8 °F 71% 29.92 in 3.1 mi NE 5.8 mph - N/A   Haze